EW5039 Weather Reports


Display with metric or nautical units.
time (UTC)temp
F
wind
direction
speed
MPH
gust
MPH
rain 1hr
in
rain 24hr
in
rain mn
in
humidity
%
barometer
mb
20260504205532 81 263 20.0 27.0 0.00 0.00 0.00 49 1000.9
20260504205336 81 262 20.0 27.0 0.00 0.00 0.00 48 1001.0
20260504205136 81 242 20.0 27.0 0.00 0.00 0.00 48 1000.8
20260504204940 81 263 20.0 32.0 0.00 0.00 0.00 47 1000.9
20260504204719 81 256 19.0 32.0 0.00 0.00 0.00 47 1000.9
20260504204520 81 267 22.0 32.0 0.00 0.00 0.00 47 1001.1
20260504204323 81 253 22.0 32.0 0.00 0.00 0.00 48 1001.0
20260504204123 81 257 22.0 33.0 0.00 0.00 0.00 47 1001.1
20260504203901 81 236 22.0 33.0 0.00 0.00 0.00 47 1001.1
20260504203704 81 249 22.0 33.0 0.00 0.00 0.00 47 1001.1
20260504203505 81 247 22.0 33.0 0.00 0.00 0.00 46 1001.3
20260504203309 81 244 21.0 30.0 0.00 0.00 0.00 47 1001.1
20260504203108 81 248 19.0 30.0 0.00 0.00 0.00 47 1001.1
20260504202847 82 247 18.0 27.0 0.00 0.00 0.00 48 1001.2
20260504202629 81 258 17.0 26.0 0.00 0.00 0.00 49 1001.2
20260504202429 81 254 19.0 26.0 0.00 0.00 0.00 48 1001.1
20260504202212 81 257 20.0 27.0 0.00 0.00 0.00 49 1001.2
20260504202012 81 276 21.0 27.0 0.00 0.00 0.00 49 1001.2
20260504201812 81 259 22.0 27.0 0.00 0.00 0.00 48 1001.2
20260504201625 81 257 22.0 27.0 0.00 0.00 0.00 48 1001.2
20260504201229 81 259 19.0 29.0 0.00 0.00 0.00 49 1001.2
20260504201012 80 265 21.0 30.0 0.00 0.00 0.00 47 1001.3
20260504200812 80 243 21.0 30.0 0.00 0.00 0.00 47 1001.3
20260504200614 80 262 22.0 30.0 0.00 0.00 0.00 48 1001.4
20260504200354 80 238 21.0 30.0 0.00 0.00 0.00 48 1001.5
20260504200154 80 250 21.0 29.0 0.00 0.00 0.00 49 1001.5
20260504195938 80 240 21.0 29.0 0.00 0.00 0.00 48 1001.4
20260504195716 80 246 22.0 31.0 0.00 0.00 0.00 47 1001.5
20260504195516 81 225 21.0 33.0 0.00 0.00 0.00 47 1001.6
20260504195320 80 261 23.0 33.0 0.00 0.00 0.00 47 1001.6
20260504195119 80 244 23.0 33.0 0.00 0.00 0.00 48 1001.5
20260504194922 80 236 24.0 34.0 0.00 0.00 0.00 47 1001.6
20260504194702 80 242 22.0 34.0 0.00 0.00 0.00 46 1001.6
20260504194501 80 240 23.0 34.0 0.00 0.00 0.00 47 1001.5
20260504194305 80 244 23.0 34.0 0.00 0.00 0.00 47 1001.5
20260504194104 80 240 23.0 34.0 0.00 0.00 0.00 46 1001.6
20260504193907 81 246 22.0 30.0 0.00 0.00 0.00 46 1001.5
20260504193707 81 255 21.0 30.0 0.00 0.00 0.00 47 1001.6
20260504193507 81 245 20.0 30.0 0.00 0.00 0.00 47 1001.5
20260504193311 81 260 19.0 30.0 0.00 0.00 0.00 46 1001.4
20260504193049 81 273 18.0 30.0 0.00 0.00 0.00 46 1001.4
20260504192849 81 261 18.0 29.0 0.00 0.00 0.00 48 1001.3
20260504192653 81 281 20.0 29.0 0.00 0.00 0.00 47 1001.4
20260504192454 81 269 22.0 28.0 0.00 0.00 0.00 45 1001.3
20260504192257 81 252 22.0 28.0 0.00 0.00 0.00 45 1001.3
20260504192037 82 271 22.0 28.0 0.00 0.00 0.00 45 1001.3
20260504191836 82 269 19.0 26.0 0.00 0.00 0.00 45 1001.4
20260504191627 82 261 18.0 25.0 0.00 0.00 0.00 46 1001.4
20260504191252 81 259 16.0 26.0 0.00 0.00 0.00 47 1001.5
20260504191034 80 247 17.0 26.0 0.00 0.00 0.00 47 1001.5
20260504190834 80 271 17.0 27.0 0.00 0.00 0.00 48 1001.6
20260504190637 80 261 19.0 27.0 0.00 0.00 0.00 48 1001.6
20260504190436 80 244 20.0 30.0 0.00 0.00 0.00 48 1001.6
20260504190236 80 247 21.0 30.0 0.00 0.00 0.00 47 1001.7
20260504190039 79 259 22.0 30.0 0.00 0.00 0.00 47 1001.7
20260504185839 79 246 23.0 30.0 0.00 0.00 0.00 47 1001.5
20260504185643 80 263 22.0 30.0 0.00 0.00 0.00 47 1001.6
20260504185442 80 263 22.0 30.0 0.00 0.00 0.00 46 1001.6
20260504185241 80 241 20.0 30.0 0.00 0.00 0.00 47 1001.8
20260504185044 80 248 22.0 32.0 0.00 0.00 0.00 46 1001.8
20260504184824 80 267 21.0 32.0 0.00 0.00 0.00 47 1001.7
20260504184623 79 281 23.0 32.0 0.00 0.00 0.00 47 1001.9
20260504184406 79 276 23.0 32.0 0.00 0.00 0.00 47 1001.9
20260504184205 79 255 24.0 31.0 0.00 0.00 0.00 45 1001.8
20260504184009 79 272 22.0 30.0 0.00 0.00 0.00 47 1001.7
20260504183808 80 259 22.0 30.0 0.00 0.00 0.00 46 1001.9
20260504183608 80 245 21.0 30.0 0.00 0.00 0.00 48 1002.2
20260504183412 79 246 22.0 31.0 0.00 0.00 0.00 47 1002.0
20260504183212 79 259 20.0 31.0 0.00 0.00 0.00 46 1002.0
20260504183017 79 241 19.0 28.0 0.00 0.00 0.00 47 1002.0
20260504182816 79 258 20.0 34.0 0.00 0.00 0.00 47 1001.9
20260504182617 79 250 21.0 34.0 0.00 0.00 0.00 47 1001.9
20260504182359 79 277 20.0 34.0 0.00 0.00 0.00 47 1001.9
20260504182159 79 291 19.0 34.0 0.00 0.00 0.00 47 1001.9
20260504181959 79 275 21.0 32.0 0.00 0.00 0.00 47 1002.1
20260504181802 79 261 22.0 32.0 0.00 0.00 0.00 47 1002.2
20260504181612 79 251 22.0 32.0 0.00 0.00 0.00 47 1002.2
20260504181237 78 259 20.0 32.0 0.00 0.00 0.00 49 1002.1
20260504181036 78 263 22.0 32.0 0.00 0.00 0.00 48 1002.0
20260504180840 77 251 24.0 32.0 0.00 0.00 0.00 48 1002.0
20260504180620 77 258 23.0 32.0 0.00 0.00 0.00 48 1001.9
20260504180419 78 254 18.0 26.0 0.00 0.00 0.00 47 1001.9
20260504180222 78 292 18.0 26.0 0.00 0.00 0.00 47 1001.9
20260504180022 78 270 17.0 26.0 0.00 0.00 0.00 49 1002.0
20260504175825 78 260 20.0 32.0 0.00 0.00 0.00 49 1002.1
20260504175623 78 244 20.0 32.0 0.00 0.00 0.00 49 1002.1
20260504175423 78 244 20.0 32.0 0.00 0.00 0.00 49 1002.2
20260504175227 78 244 20.0 32.0 0.00 0.00 0.00 49 1002.2
20260504175026 78 241 21.0 32.0 0.00 0.00 0.00 49 1002.3
20260504174830 78 244 21.0 32.0 0.00 0.00 0.00 49 1002.2
20260504174630 78 244 19.0 32.0 0.00 0.00 0.00 49 1002.3
20260504174430 77 258 17.0 25.0 0.00 0.00 0.00 49 1002.4
20260504174235 77 264 17.0 25.0 0.00 0.00 0.00 49 1002.2
20260504174034 77 264 17.0 25.0 0.00 0.00 0.00 49 1002.2
20260504173812 77 264 17.0 25.0 0.00 0.00 0.00 49 1002.3
20260504173615 77 242 18.0 26.0 0.00 0.00 0.00 50 1002.4
20260504173415 77 245 18.0 26.0 0.00 0.00 0.00 51 1002.3
20260504173219 77 246 17.0 26.0 0.00 0.00 0.00 48 1002.3
20260504173019 76 244 15.0 22.0 0.00 0.00 0.00 50 1002.4
20260504172818 76 259 14.0 22.0 0.00 0.00 0.00 51 1002.3
20260504172621 76 255 13.0 24.0 0.00 0.00 0.00 54 1002.5
20260504172421 76 254 14.0 24.0 0.00 0.00 0.00 52 1002.5
20260504172225 75 243 15.0 24.0 0.00 0.00 0.00 52 1002.5
20260504172023 75 246 16.0 24.0 0.00 0.00 0.00 52 1002.4
20260504171824 75 248 16.0 24.0 0.00 0.00 0.00 52 1002.5
20260504171615 75 253 16.0 21.0 0.00 0.00 0.00 52 1002.5
20260504171219 75 248 15.0 21.0 0.00 0.00 0.00 54 1002.5
20260504171023 75 268 16.0 21.0 0.00 0.00 0.00 53 1002.5
20260504170823 74 248 15.0 22.0 0.00 0.00 0.00 54 1002.6
20260504170625 74 252 16.0 22.0 0.00 0.00 0.00 53 1002.6
20260504170425 74 244 14.0 22.0 0.00 0.00 0.00 52 1002.5
20260504170225 74 260 14.0 22.0 0.00 0.00 0.00 53 1002.7
20260504160348 69 248 12.0 18.0 0.00 0.00 0.00 58 1003.2
20260504160152 69 245 11.0 18.0 0.00 0.00 0.00 59 1003.1
20260504151031 69 246 15.0 27.0 0.00 0.00 0.00 57 1003.1
20260504150834 69 257 17.0 27.0 0.00 0.00 0.00 55 1003.1
20260504150634 69 244 19.0 32.0 0.00 0.00 0.00 55 1003.1
20260504150434 70 252 19.0 32.0 0.00 0.00 0.00 55 1003.2
20260504150237 70 249 19.0 32.0 0.00 0.00 0.00 55 1003.3
20260504141248 68 240 13.0 20.0 0.00 0.00 0.00 60 1003.7
20260504141048 68 257 13.0 20.0 0.00 0.00 0.00 59 1003.8
20260504140852 67 248 13.0 20.0 0.00 0.00 0.00 60 1003.8
20260504140629 67 258 12.0 19.0 0.00 0.00 0.00 60 1003.9
20260504140435 66 218 13.0 20.0 0.00 0.00 0.00 60 1003.9
20260504140234 66 258 14.0 20.0 0.00 0.00 0.00 60 1003.9
20260504130658 64 239 13.0 18.0 0.00 0.00 0.00 63 1004.4
20260504130458 64 248 14.0 18.0 0.00 0.00 0.00 63 1004.4
20260504130258 63 243 13.0 16.0 0.00 0.00 0.00 64 1004.3
20260504120202 57 184 3.0 6.0 0.00 0.00 0.00 81 1004.8
20260504110528 56 163 4.0 6.0 0.00 0.00 0.00 79 1004.7
20260504110327 56 163 4.0 6.0 0.00 0.00 0.00 79 1004.7
20260504110126 56 163 5.0 6.0 0.00 0.00 0.00 80 1004.8
20260504100428 56 161 5.0 6.0 0.00 0.00 0.00 81 1005.3
20260504100228 56 161 5.0 6.0 0.00 0.00 0.00 80 1005.3
20260504081901 63 224 4.0 5.0 0.00 0.00 0.00 68 1005.8
20260504081701 63 226 4.0 5.0 0.00 0.00 0.00 68 1005.7
20260504081451 64 220 4.0 5.0 0.00 0.00 0.00 67 1005.8
20260504081116 64 229 4.0 5.0 0.00 0.00 0.00 67 1005.8
20260504080920 64 229 4.0 5.0 0.00 0.00 0.00 66 1005.8
20260504080719 64 226 4.0 5.0 0.00 0.00 0.00 67 1005.9
20260504080523 64 225 4.0 5.0 0.00 0.00 0.00 67 1005.9
20260504080323 64 237 3.0 5.0 0.00 0.00 0.00 67 1005.9
20260504080123 64 248 3.0 4.0 0.00 0.00 0.00 67 1005.9
20260504070402 63 284 3.0 6.0 0.00 0.00 0.00 68 1006.6
20260504070202 63 284 3.0 6.0 0.00 0.00 0.00 69 1006.7
20260504060209 64 271 4.0 8.0 0.00 0.00 0.00 64 1006.8
20260504050625 65 231 4.0 6.0 0.00 0.00 0.00 62 1006.4
20260504050428 65 229 4.0 6.0 0.00 0.00 0.00 63 1006.4
20260504050206 64 221 4.0 6.0 0.00 0.00 0.00 64 1006.4
20260504050006 64 270 4.0 6.0 0.00 0.00 0.00 64 1006.4
20260504045811 64 270 3.0 4.0 0.00 0.00 0.00 64 1006.4
20260504045610 64 270 3.0 6.0 0.00 0.00 0.00 65 1006.4
20260504045410 64 270 3.0 6.0 0.00 0.00 0.00 65 1006.4
20260504045215 64 270 3.0 6.0 0.00 0.00 0.00 65 1006.4
20260504045015 64 270 4.0 7.0 0.00 0.00 0.00 65 1006.5
20260504044758 64 270 4.0 7.0 0.00 0.00 0.00 65 1006.5
20260504044558 64 270 5.0 7.0 0.00 0.00 0.00 65 1006.5
20260504044358 64 270 4.0 7.0 0.00 0.00 0.00 65 1006.5
20260504044201 64 270 3.0 7.0 0.00 0.00 0.00 66 1006.5
20260504044001 64 270 1.0 4.0 0.00 0.00 0.00 67 1006.5
20260504043804 64 270 1.0 4.0 0.00 0.00 0.00 67 1006.5
20260504043605 64 270 1.0 4.0 0.00 0.00 0.00 68 1006.6
20260504043406 64 270 2.0 4.0 0.00 0.00 0.00 68 1006.6
20260504043208 64 270 2.0 4.0 0.00 0.00 0.00 67 1006.6
20260504043008 64 270 2.0 4.0 0.00 0.00 0.00 67 1006.6
20260504042808 63 270 2.0 3.0 0.00 0.00 0.00 68 1006.7
20260504042611 63 270 2.0 3.0 0.00 0.00 0.00 69 1006.7
20260504042412 63 270 2.0 3.0 0.00 0.00 0.00 69 1006.7
20260504042215 63 270 1.0 3.0 0.00 0.00 0.00 69 1006.7
20260504041954 63 270 1.0 3.0 0.00 0.00 0.00 69 1006.8
20260504041753 63 270 2.0 3.0 0.00 0.00 0.00 69 1006.8
20260504041604 64 270 2.0 3.0 0.00 0.00 0.00 68 1006.8
20260504041230 64 270 2.0 3.0 0.00 0.00 0.00 68 1006.9
20260504041013 64 270 2.0 3.0 0.00 0.00 0.00 68 1006.9
20260504040751 64 270 2.0 3.0 0.00 0.00 0.00 68 1007.0
20260504040555 65 270 2.0 3.0 0.00 0.00 0.00 68 1007.0
20260504040354 65 270 2.0 3.0 0.00 0.00 0.00 67 1007.0
20260504040153 65 270 2.0 3.0 0.00 0.00 0.00 67 1007.0
20260504035957 65 270 3.0 3.0 0.00 0.00 0.00 66 1007.0
20260504035756 65 270 2.0 3.0 0.00 0.00 0.00 65 1007.0
20260504035559 66 270 2.0 3.0 0.00 0.00 0.00 65 1007.1
20260504035358 66 270 1.0 3.0 0.00 0.00 0.00 65 1007.1
20260504035157 66 270 1.0 2.0 0.00 0.00 0.00 64 1007.2
20260504035000 66 270 1.0 2.0 0.00 0.00 0.00 64 1007.3
20260504034739 66 270 0.0 2.0 0.00 0.00 0.00 64 1007.2
20260504034518 66 270 0.0 3.0 0.00 0.00 0.00 63 1007.3
20260504034300 66 270 0.0 3.0 0.00 0.00 0.00 63 1007.3
20260504034100 66 270 1.0 3.0 0.00 0.00 0.00 63 1007.3
20260504033904 66 270 2.0 3.0 0.00 0.00 0.00 62 1007.3
20260504033643 66 270 2.0 3.0 0.00 0.00 0.00 63 1007.3
20260504033443 67 270 1.0 4.0 0.00 0.00 0.00 62 1007.3
20260504033246 67 270 1.0 4.0 0.00 0.00 0.00 62 1007.3
20260504033046 67 270 1.0 4.0 0.00 0.00 0.00 62 1007.3
20260504032849 67 270 2.0 6.0 0.00 0.00 0.00 62 1007.3
20260504032628 67 270 2.0 6.0 0.00 0.00 0.00 61 1007.3
20260504032427 67 270 3.0 6.0 0.00 0.00 0.00 61 1007.3
20260504032231 68 270 3.0 6.0 0.00 0.00 0.00 61 1007.3
20260504032031 68 270 3.0 8.0 0.00 0.00 0.00 60 1007.4
20260504031831 68 270 4.0 11.0 0.00 0.00 0.00 60 1007.4
20260504031643 68 270 5.0 11.0 0.00 0.00 0.00 59 1007.4
20260504031312 69 248 7.0 13.0 0.00 0.00 0.00 58 1007.5
20260504031051 69 248 8.0 13.0 0.00 0.00 0.00 58 1007.4
20260504030851 69 246 8.0 13.0 0.00 0.00 0.00 58 1007.4
20260504030655 69 267 8.0 13.0 0.00 0.00 0.00 58 1007.4
20260504030454 69 234 8.0 14.0 0.00 0.00 0.00 58 1007.4
20260504030254 69 249 9.0 15.0 0.00 0.00 0.00 58 1007.4
20260504030035 69 251 10.0 16.0 0.00 0.00 0.00 57 1007.4
20260504025835 69 252 10.0 16.0 0.00 0.00 0.00 57 1007.4
20260504025639 69 240 10.0 16.0 0.00 0.00 0.00 57 1007.3
20260504025439 69 246 11.0 16.0 0.00 0.00 0.00 57 1007.3
20260504025239 69 252 11.0 16.0 0.00 0.00 0.00 57 1007.3
20260504025042 70 246 12.0 16.0 0.00 0.00 0.00 57 1007.3
20260504024820 70 244 11.0 16.0 0.00 0.00 0.00 56 1007.3
20260504024603 70 234 11.0 16.0 0.00 0.00 0.00 57 1007.3
20260504024403 70 246 11.0 16.0 0.00 0.00 0.00 57 1007.1
20260504024202 70 257 10.0 16.0 0.00 0.00 0.00 57 1007.2
20260504024006 70 248 10.0 16.0 0.00 0.00 0.00 57 1007.1
20260504023805 70 238 11.0 16.0 0.00 0.00 0.00 56 1007.2
20260504023545 70 238 12.0 16.0 0.00 0.00 0.00 56 1007.1
20260504023348 70 242 11.0 14.0 0.00 0.00 0.00 56 1007.1
20260504023147 70 241 11.0 14.0 0.00 0.00 0.00 56 1007.1
20260504022950 70 246 11.0 14.0 0.00 0.00 0.00 56 1007.1
20260504022750 70 242 11.0 14.0 0.00 0.00 0.00 56 1007.1
20260504022550 70 248 10.0 16.0 0.00 0.00 0.00 56 1007.0
20260504022355 70 243 11.0 16.0 0.00 0.00 0.00 56 1007.0
20260504022154 70 236 10.0 16.0 0.00 0.00 0.00 55 1007.0
20260504021957 70 232 10.0 16.0 0.00 0.00 0.00 56 1007.0
20260504021757 70 240 9.0 16.0 0.00 0.00 0.00 56 1007.0
20260504021610 70 229 8.0 12.0 0.00 0.00 0.00 55 1007.0
20260504021235 70 237 8.0 11.0 0.00 0.00 0.00 55 1007.0
20260504021035 71 237 7.0 11.0 0.00 0.00 0.00 55 1007.0
20260504020818 71 240 7.0 11.0 0.00 0.00 0.00 54 1006.9
20260504020557 71 239 8.0 14.0 0.00 0.00 0.00 54 1006.9
20260504020401 71 227 8.0 14.0 0.00 0.00 0.00 54 1006.9
20260504020202 71 229 9.0 14.0 0.00 0.00 0.00 53 1006.9
20260504020002 71 229 9.0 14.0 0.00 0.00 0.00 53 1006.9
20260504015805 71 245 8.0 14.0 0.00 0.00 0.00 53 1006.9
20260504015604 71 232 9.0 14.0 0.00 0.00 0.00 53 1006.9
20260504015404 71 236 8.0 13.0 0.00 0.00 0.00 53 1006.9
20260504015208 71 234 9.0 13.0 0.00 0.00 0.00 53 1006.9
20260504015008 71 235 9.0 13.0 0.00 0.00 0.00 53 1006.9
20260504014750 72 241 9.0 13.0 0.00 0.00 0.00 53 1006.9
20260504014549 72 239 9.0 13.0 0.00 0.00 0.00 53 1006.9
20260504014348 72 240 9.0 13.0 0.00 0.00 0.00 52 1006.8
20260504014152 72 246 9.0 13.0 0.00 0.00 0.00 52 1006.8
20260504013951 72 238 9.0 14.0 0.00 0.00 0.00 53 1006.9
20260504013755 72 243 10.0 14.0 0.00 0.00 0.00 53 1006.9
20260504013555 72 242 10.0 14.0 0.00 0.00 0.00 52 1006.9
20260504013333 72 248 10.0 14.0 0.00 0.00 0.00 52 1006.8
20260504013137 72 239 9.0 14.0 0.00 0.00 0.00 52 1006.8
20260504012916 72 239 9.0 14.0 0.00 0.00 0.00 52 1006.8
20260504012716 72 236 9.0 14.0 0.00 0.00 0.00 52 1006.8
20260504012519 72 238 9.0 12.0 0.00 0.00 0.00 53 1006.9
20260504012319 72 247 9.0 11.0 0.00 0.00 0.00 53 1006.9
20260504012123 72 240 9.0 11.0 0.00 0.00 0.00 53 1006.9
20260504011923 72 238 9.0 11.0 0.00 0.00 0.00 53 1006.9
20260504011723 72 234 9.0 12.0 0.00 0.00 0.00 53 1006.9
20260504011535 72 241 8.0 12.0 0.00 0.00 0.00 52 1006.9
20260504011139 72 244 8.0 12.0 0.00 0.00 0.00 53 1006.8
20260504010920 72 242 8.0 12.0 0.00 0.00 0.00 52 1006.9
20260504010720 73 238 8.0 13.0 0.00 0.00 0.00 52 1006.9
20260504010504 73 249 8.0 13.0 0.00 0.00 0.00 52 1006.8
20260504010302 73 244 8.0 13.0 0.00 0.00 0.00 52 1006.8
20260504005906 73 242 8.0 12.0 0.00 0.00 0.00 51 1006.8
20260504005706 73 238 8.0 12.0 0.00 0.00 0.00 51 1006.7
20260504005509 74 252 8.0 12.0 0.00 0.00 0.00 51 1006.7
20260504005309 74 245 7.0 11.0 0.00 0.00 0.00 50 1006.8
20260504005048 74 240 7.0 12.0 0.00 0.00 0.00 50 1006.8
20260504004829 74 239 8.0 14.0 0.00 0.00 0.00 50 1006.8
20260504004629 75 237 9.0 14.0 0.00 0.00 0.00 49 1006.8
20260504004429 75 242 10.0 14.0 0.00 0.00 0.00 49 1006.8
20260504004211 75 245 9.0 14.0 0.00 0.00 0.00 48 1006.8
20260504003949 75 232 8.0 13.0 0.00 0.00 0.00 48 1006.8
20260504003731 75 242 8.0 12.0 0.00 0.00 0.00 48 1006.8
20260504003531 76 239 9.0 12.0 0.00 0.00 0.00 48 1006.8
20260504003332 76 246 9.0 12.0 0.00 0.00 0.00 47 1006.8
20260504003136 76 237 9.0 14.0 0.00 0.00 0.00 48 1006.9
20260504002936 76 248 9.0 14.0 0.00 0.00 0.00 47 1006.8
20260504002718 76 244 10.0 14.0 0.00 0.00 0.00 46 1006.9
20260504002518 76 243 10.0 14.0 0.00 0.00 0.00 46 1006.9
20260504002318 77 242 10.0 14.0 0.00 0.00 0.00 46 1006.8
20260504002120 77 224 9.0 14.0 0.00 0.00 0.00 46 1006.9
20260504001920 77 239 9.0 15.0 0.00 0.00 0.00 46 1006.9
20260504001719 77 244 10.0 15.0 0.00 0.00 0.00 47 1006.9
20260504001533 77 244 10.0 15.0 0.00 0.00 0.00 45 1007.0
20260504001202 77 252 11.0 15.0 0.00 0.00 0.00 45 1007.0
20260504001001 77 245 10.0 15.0 0.00 0.00 0.00 46 1006.9
20260504000802 77 247 9.0 14.0 0.00 0.00 0.00 45 1007.0
20260504000605 78 242 9.0 14.0 0.00 0.00 0.00 44 1007.0
20260504000404 78 252 8.0 13.0 0.00 0.00 0.00 45 1006.9
20260504000204 78 259 9.0 13.0 0.00 0.00 0.00 44 1006.9
20260504000008 78 246 9.0 12.0 0.00 0.00 0.00 44 1006.9
20260503235808 78 246 10.0 14.0 0.00 0.00 0.00 44 1007.0
20260503235612 78 240 9.0 14.0 0.00 0.00 0.00 44 1007.0
20260503235412 78 242 9.0 14.0 0.00 0.00 0.00 44 1007.0
20260503235211 78 235 9.0 14.0 0.00 0.00 0.00 43 1007.0
20260503235015 78 256 9.0 14.0 0.00 0.00 0.00 44 1007.1
20260503234814 79 241 9.0 13.0 0.00 0.00 0.00 43 1007.1
20260503234618 79 245 9.0 13.0 0.00 0.00 0.00 43 1007.1
20260503234418 79 258 9.0 15.0 0.00 0.00 0.00 42 1007.1
20260503234218 79 262 9.0 15.0 0.00 0.00 0.00 42 1007.2
20260503234022 79 259 11.0 15.0 0.00 0.00 0.00 43 1007.3
20260503233822 79 248 12.0 15.0 0.00 0.00 0.00 43 1007.2
20260503233600 79 252 12.0 15.0 0.00 0.00 0.00 42 1007.3
20260503233405 79 255 12.0 15.0 0.00 0.00 0.00 43 1007.3
20260503233204 79 243 12.0 15.0 0.00 0.00 0.00 42 1007.3
20260503233008 79 242 11.0 20.0 0.00 0.00 0.00 43 1007.3
20260503232808 79 246 12.0 24.0 0.00 0.00 0.00 43 1007.3
20260503232607 79 269 13.0 24.0 0.00 0.00 0.00 42 1007.3
20260503232411 79 268 14.0 24.0 0.00 0.00 0.00 41 1007.3
20260503232211 79 254 14.0 24.0 0.00 0.00 0.00 42 1007.4
20260503232016 79 275 15.0 23.0 0.00 0.00 0.00 42 1007.4
20260503231814 79 254 13.0 20.0 0.00 0.00 0.00 42 1007.4
20260503231625 79 265 14.0 21.0 0.00 0.00 0.00 41 1007.4
20260503231250 79 266 15.0 21.0 0.00 0.00 0.00 40 1007.3
20260503231029 79 261 16.0 21.0 0.00 0.00 0.00 41 1007.5
20260503230834 79 255 16.0 21.0 0.00 0.00 0.00 41 1007.4
20260503230634 79 270 14.0 19.0 0.00 0.00 0.00 41 1007.4
20260503230437 79 254 14.0 19.0 0.00 0.00 0.00 41 1007.5
20260503230237 79 254 12.0 18.0 0.00 0.00 0.00 40 1007.5
20260503230037 79 254 11.0 24.0 0.00 0.00 0.00 40 1007.5
20260503225841 79 244 11.0 24.0 0.00 0.00 0.00 41 1007.4
20260503225641 79 280 14.0 24.0 0.00 0.00 0.00 41 1007.4
20260503225420 79 269 15.0 24.0 0.00 0.00 0.00 41 1007.4
20260503225223 79 271 14.0 24.0 0.00 0.00 0.00 40 1007.5
20260503225023 79 261 13.0 18.0 0.00 0.00 0.00 40 1007.5
20260503224827 80 255 12.0 18.0 0.00 0.00 0.00 40 1007.5
20260503224627 80 261 12.0 19.0 0.00 0.00 0.00 40 1007.5
20260503224426 80 242 13.0 21.0 0.00 0.00 0.00 40 1007.5
20260503224230 80 255 14.0 21.0 0.00 0.00 0.00 40 1007.4
20260503224029 80 261 15.0 21.0 0.00 0.00 0.00 40 1007.5
20260503223833 80 274 15.0 21.0 0.00 0.00 0.00 41 1007.6
20260503223632 80 274 15.0 21.0 0.00 0.00 0.00 40 1007.5
20260503223432 80 267 13.0 20.0 0.00 0.00 0.00 41 1007.5
20260503223236 80 266 13.0 21.0 0.00 0.00 0.00 41 1007.5
20260503223014 80 287 13.0 21.0 0.00 0.00 0.00 41 1007.5
20260503222813 80 273 14.0 24.0 0.00 0.00 0.00 40 1007.6
20260503222556 80 266 13.0 24.0 0.00 0.00 0.00 40 1007.7
20260503222356 80 266 14.0 24.0 0.00 0.00 0.00 40 1007.7
20260503222159 80 272 14.0 24.0 0.00 0.00 0.00 40 1007.6
20260503221959 80 283 13.0 24.0 0.00 0.00 0.00 41 1007.7
20260503221759 80 263 12.0 23.0 0.00 0.00 0.00 42 1007.7
20260503221612 79 290 13.0 23.0 0.00 0.00 0.00 42 1007.6
20260503221237 79 278 15.0 23.0 0.00 0.00 0.00 41 1007.7
20260503221040 79 273 16.0 23.0 0.00 0.00 0.00 40 1007.7
20260503220840 79 273 16.0 24.0 0.00 0.00 0.00 40 1007.6
20260503220643 79 264 16.0 24.0 0.00 0.00 0.00 40 1007.7
20260503220422 80 278 14.0 24.0 0.00 0.00 0.00 40 1007.7
20260503220222 80 276 12.0 24.0 0.00 0.00 0.00 40 1007.7
20260503220026 80 257 11.0 23.0 0.00 0.00 0.00 41 1007.7
20260503215826 80 282 13.0 23.0 0.00 0.00 0.00 40 1007.7
20260503215630 80 297 14.0 25.0 0.00 0.00 0.00 42 1007.7
20260503215430 79 279 17.0 25.0 0.00 0.00 0.00 42 1007.8
20260503215229 79 269 18.0 25.0 0.00 0.00 0.00 42 1007.7
20260503215033 80 263 16.0 25.0 0.00 0.00 0.00 40 1007.9
20260503214811 80 263 16.0 25.0 0.00 0.00 0.00 40 1007.8
20260503214610 80 263 16.0 25.0 0.00 0.00 0.00 40 1007.8
20260503214354 80 273 14.0 24.0 0.00 0.00 0.00 43 1007.9
20260503214153 80 272 14.0 24.0 0.00 0.00 0.00 41 1007.8
20260503213957 79 271 14.0 24.0 0.00 0.00 0.00 43 1007.9
20260503213756 79 271 14.0 24.0 0.00 0.00 0.00 43 1007.9
20260503213556 79 271 14.0 24.0 0.00 0.00 0.00 43 1007.9
20260503213337 79 250 18.0 24.0 0.00 0.00 0.00 40 1008.0
20260503213137 79 245 15.0 26.0 0.00 0.00 0.00 40 1007.9
20260503212919 79 268 15.0 26.0 0.00 0.00 0.00 43 1007.9
20260503212658 79 271 18.0 26.0 0.00 0.00 0.00 40 1008.0
20260503212458 79 279 19.0 27.0 0.00 0.00 0.00 40 1008.0
20260503212300 79 267 17.0 27.0 0.00 0.00 0.00 41 1008.1
20260503212101 79 261 15.0 23.0 0.00 0.00 0.00 41 1008.0
20260503211900 79 271 15.0 27.0 0.00 0.00 0.00 40 1008.1
20260503211704 79 276 15.0 27.0 0.00 0.00 0.00 40 1008.1
20260503211515 79 265 15.0 27.0 0.00 0.00 0.00 39 1008.1
20260503211139 79 281 17.0 27.0 0.00 0.00 0.00 41 1008.1
20260503210918 79 286 18.0 27.0 0.00 0.00 0.00 41 1008.2
20260503210722 79 279 17.0 30.0 0.00 0.00 0.00 40 1008.2
20260503210501 79 271 15.0 30.0 0.00 0.00 0.00 41 1008.2
20260503210300 79 286 17.0 30.0 0.00 0.00 0.00 41 1008.3
20260503210104 79 275 17.0 30.0 0.00 0.00 0.00 41 1008.3
20260503205904 79 259 19.0 30.0 0.00 0.00 0.00 39 1008.3
20260503205707 79 257 17.0 26.0 0.00 0.00 0.00 40 1008.3